Location: Chenereilles
(45.4866°N, 4.0790°E)
Time: 03:42:25
(UTC+00:00)

NOSS 8 (A) - Pass Details

Date: 12 November 2019
Orbit: 387 x 1765 km, 63.3° (Epoch: 18 November)

Event Time Altitude Azimuth Distance (km) Brightness Sun altitude
Rises 17:46:55 0° 218° (SW) 2,495 8.9 -15.8°
Reaches altitude 10° 17:49:08 10° 218° (SW) 1,521 7.8 -16.2°
Maximum altitude 17:52:22 87° 310° (NW) 401 4.1 -16.8°
Enters shadow 17:53:17 42° 35° (NE) 576 4.6 -16.9°
